RH
66 67 64 62 60 59 58 58 58 56 54 57 59 60 58 55 55 55 54 60 68 70 71 77 80 77 75 71 69 74 72 68 71 70 65 66 69 65 59 55 53 54
67 66 65 63 62 60 58 56 56 54 53 54 54 53 53 53 54 55 55 57 63 68 70 75 80 78 74 71 71 74 73 70 72 72 67 65 66 65 61 57 54 55
65 65 63 62 61 61 60 57 55 54 53 53 52 51 51 51 52 54 56 57 61 65 68 72 77 76 75 73 72 77 77 74 75 73 66 63 65 66 63 60 56 55
63 62 59 57 57 58 59 57 56 55 54 53 53 52 51 50 50 52 56 58 59 61 63 67 71 71 73 73 71 75 77 73 72 73 70 69 71 70 65 61 57 55
63 60 57 54 52 54 56 56 55 55 57 56 54 53 52 51 50 50 54 58 60 60 59 62 67 68 70 71 70 72 74 71 68 69 72 73 71 69 63 58 55 55
63 61 57 54 52 52 54 54 54 54 55 55 54 53 52 52 53 52 52 55 58 60 58 57 61 66 67 67 69 72 73 70 64 62 68 72 72 70 63 57 54 55
59 59 57 55 53 52 52 53 53 53 52 52 52 52 52 52 54 54 53 53 55 58 57 54 54 58 61 62 64 69 71 70 66 62 65 71 74 73 67 63 59 57
53 56 56 54 52 50 50 50 51 51 52 52 50 51 52 52 54 56 56 55 54 54 55 54 52 52 56 59 60 63 66 68 66 62 63 68 71 71 69 67 64 60
49 51 53 53 51 49 48 47 47 49 50 51 51 51 51 52 54 57 58 56 54 54 55 56 56 55 56 59 59 59 62 65 64 60 61 64 66 68 67 66 64 62
46 47 48 49 49 46 45 44 43 45 47 49 50 49 49 51 54 55 56 57 58 57 58 59 60 60 60 61 62 61 60 61 63 62 62 62 62 64 65 65 64 62
44 44 44 46 48 47 45 43 42 42 43 46 49 50 49 49 52 53 54 57 61 62 62 63 63 62 63 63 63 63 60 59 59 61 63 62 61 61 61 62 63 62
46 45 46 49 50 51 49 46 44 43 43 44 47 49 51 51 52 55 56 57 60 63 62 63 65 65 64 66 66 63 60 60 58 59 62 63 62 63 62 61 62 63
52 49 48 51 52 53 52 48 46 46 47 50 51 51 54 56 55 56 59 60 62 65 63 61 64 66 66 67 68 65 63 62 60 61 66 66 65 67 67 66 65 66
59 54 53 58 57 53 50 49 49 49 50 52 54 54 55 55 55 58 62 61 60 67 70 65 63 67 69 68 68 69 70 67 62 62 66 67 66 67 68 66 65 66
62 59 62 67 64 58 54 53 52 53 55 55 54 55 54 53 53 56 60 59 57 64 73 74 71 72 71 69 68 70 72 70 66 66 68 65 64 68 69 65 64 65
68 67 72 77 75 69 62 58 55 56 59 59 56 55 54 54 53 54 59 64 62 64 70 71 73 74 71 68 68 68 69 70 69 69 68 66 66 70 70 66 66 66
77 79 84 88 88 83 77 70 66 64 64 62 59 58 55 52 52 53 62 70 67 63 63 64 69 73 71 69 69 68 70 72 74 75 74 74 77 78 73 70 72 70
86 91 92 93 93 92 89 83 74 70 71 69 67 64 58 53 54 58 66 74 73 68 65 65 68 71 69 68 68 68 68 70 77 82 78 76 81 86 83 81 82 80
87 90 85 87 91 89 89 87 79 73 73 74 74 72 65 60 62 66 70 73 74 74 72 69 67 67 66 66 67 68 68 67 73 78 78 79 84 85 80 77 81 84
90 88 82 87 88 83 85 89 83 76 75 75 77 76 73 69 69 71 73 72 71 73 75 73 71 69 68 67 69 71 72 70 73 79 83 83 82 79 74 73 76 83
93 92 92 93 88 83 89 93 91 88 85 80 78 79 80 78 74 73 76 78 77 79 80 79 77 75 72 70 71 72 73 73 76 83 86 82 76 74 76 78 80 80
92 92 94 95 91 90 92 93 93 94 90 83 82 88 90 86 78 77 81 85 87 88 88 84 82 81 78 74 73 74 77 80 82 85 86 81 75 75 77 81 84 81
94 94 93 93 94 94 92 91 92 94 92 88 90 97 97 90 85 86 90 92 91 92 93 89 87 86 84 79 76 76 78 82 86 85 81 78 77 81 83 82 82 85
97 97 95 94 96 96 95 96 96 96 96 95 96 99 99 95 94 96 96 95 93 92 92 91 89 88 87 82 78 77 75 78 86 87 85 85 85 86 86 83 83 91
97 96 95 96 99 99 99 99 97 93 93 97 98 98 97 97 98 99 98 97 98 95 91 89 89 88 88 84 80 77 75 75 81 86 89 93 91 88 88 86 85 89
97 99 99 99 99 100 99 100 96 89 88 95 100 99 98 99 99 99 99 99 99 98 96 95 93 90 90 89 85 83 82 82 82 86 91 93 92 92 93 90 89 90
Wind_Speed
14 14 14 13 13 12 12 12 12 12 12 12 11 12 12 11 10 9 9 10 11 10 10 9 9 8 8 8 7 7 6 6 6 5 5 5 5 6 7 7 6 5
16 15 14 14 14 13 12 12 12 12 12 12 12 11 12 11 11 11 10 10 11 10 11 10 10 9 9 9 8 8 8 7 7 6 6 7 7 8 7 7 6 5
17 17 16 14 14 14 13 12 12 12 12 12 12 10 11 11 12 12 11 11 11 10 12 12 11 10 10 10 9 9 9 9 8 8 8 8 8 8 7 7 7 6
18 17 17 16 15 14 14 13 13 12 11 12 12 12 11 11 11 12 13 13 12 11 12 13 12 11 11 11 11 10 10 10 10 9 9 9 8 8 7 8 8 7
19 18 17 16 16 15 15 14 14 14 13 13 13 13 13 12 11 11 13 14 14 13 12 12 12 12 12 12 11 12 11 10 11 11 11 11 9 8 9 9 8 7
20 19 18 17 17 16 16 15 15 15 14 14 14 13 14 14 13 13 13 14 14 14 13 13 13 12 12 12 12 12 11 11 11 12 11 11 10 9 9 9 8 7
20 20 19 18 17 17 16 16 15 16 15 15 15 15 14 14 15 15 14 13 13 14 14 14 15 14 13 12 13 13 13 12 12 11 10 10 10 10 9 9 9 9
20 20 20 19 18 18 17 16 16 16 15 15 15 15 15 14 14 14 15 15 15 14 14 14 14 15 14 13 13 13 13 12 12 12 11 11 12 11 11 10 10 10
19 19 19 19 18 18 17 17 16 16 15 15 15 14 14 14 14 15 16 16 15 14 13 14 13 13 13 13 13 14 13 11 12 13 13 12 13 13 12 12 12 12
18 18 18 18 18 18 17 17 16 15 15 15 15 14 14 15 15 16 16 15 16 15 14 14 14 13 12 13 13 13 13 13 13 13 12 11 12 13 12 12 11 11
17 17 17 15 15 15 15 16 15 15 15 15 14 14 14 14 14 15 16 15 15 15 14 14 14 13 13 13 13 13 13 14 14 14 13 13 13 13 13 12 11 11
16 16 15 12 12 13 15 15 13 13 13 13 14 15 15 14 13 11 13 15 15 16 16 15 14 14 14 13 13 13 14 14 13 13 12 12 13 13 13 13 13 12
15 16 16 13 14 17 18 17 15 12 10 8 9 12 12 13 13 10 10 13 15 15 16 15 14 14 14 13 13 13 13 14 13 11 9 10 12 13 12 12 12 11
15 15 16 15 16 18 19 19 17 14 13 11 8 8 10 13 15 14 11 13 14 15 16 16 14 13 12 13 14 13 11 13 14 12 10 10 11 11 12 13 12 11
16 15 14 14 15 18 19 20 18 15 15 15 12 10 12 15 16 14 12 14 15 14 16 13 8 9 11 12 14 14 13 13 13 11 10 11 11 11 13 13 12 11
13 14 12 11 12 16 17 18 19 17 16 17 15 12 12 13 14 13 11 11 9 10 12 11 6 6 8 9 11 13 14 14 12 11 11 11 12 13 15 14 12 12
7 8 8 6 8 11 13 14 17 17 17 18 16 14 14 13 13 13 10 6 6 7 6 6 7 9 9 9 9 9 11 12 11 10 10 10 9 11 13 13 12 14
4 5 7 7 7 9 10 12 15 16 15 15 15 15 15 14 12 12 10 6 5 5 2 2 2 7 9 10 10 10 11 11 10 10 11 10 9 9 9 9 12 15
5 7 11 12 11 10 10 12 15 16 15 14 13 14 15 14 12 12 12 9 6 5 3 3 3 5 7 8 10 12 12 12 13 13 10 8 8 9 10 11 15 16
6 10 14 15 14 13 12 12 14 16 16 15 14 15 15 14 13 12 11 10 8 6 4 4 5 7 8 7 8 10 12 12 12 11 9 8 9 11 12 10 11 13
7 11 12 14 14 13 12 12 12 12 12 13 15 15 14 14 14 12 9 7 7 6 5 5 6 8 8 8 7 8 9 10 9 7 7 11 13 12 12 9 8 11
7 9 10 11 12 12 12 13 12 11 12 13 14 12 11 12 13 11 7 5 4 3 4 6 8 8 8 8 8 7 6 5 5 4 6 9 11 11 10 9 10 11
5 5 7 9 10 11 13 13 14 15 16 16 13 11 10 10 10 8 6 6 5 6 7 8 7 6 6 7 6 6 4 1 1 3 5 6 6 5 6 8 10 10
3 4 4 6 7 8 11 12 13 15 17 17 14 11 10 9 7 7 8 6 7 9 9 8 4 2 3 4 4 4 3 2 1 1 3 3 2 2 2 4 5 6
6 5 4 4 4 5 7 8 9 13 15 17 19 15 12 11 9 9 11 11 14 14 11 7 4 3 0 1 1 2 1 2 3 2 0 2 3 3 2 2 2 3
11 8 8 9 8 7 7 7 6 10 11 10 18 18 14 12 12 13 14 14 15 15 11 7 5 3 1 1 1 1 0 2 3 3 2 1 2 2 2 3 2 3
Wind_Direction
190 190 193 193 194 195 195 197 200 204 205 204 204 208 211 213 214 212 209 203 198 203 211 207 207 212 217 224 226 228 233 233 243 256 259 264 269 270 270 265 266 270
193 194 195 195 198 200 202 203 205 208 210 213 215 210 209 211 213 213 210 205 202 203 210 214 215 213 214 221 226 229 229 231 239 242 246 257 262 262 266 270 271 267
195 195 196 199 200 201 205 207 210 213 211 214 220 218 214 211 209 211 211 209 207 208 211 215 218 218 217 219 223 227 228 229 233 239 244 254 262 262 265 273 266 258
197 198 199 202 203 203 205 208 211 215 215 216 218 219 221 219 212 209 210 213 214 217 219 217 217 220 220 221 224 225 233 238 236 239 245 249 258 263 263 266 262 260
198 200 202 204 206 206 206 209 210 211 215 219 218 219 222 224 222 216 211 212 216 220 224 221 219 222 223 224 225 226 233 240 240 239 240 245 252 258 259 258 254 256
198 201 204 205 208 209 210 210 211 212 214 218 220 220 221 221 222 223 218 212 215 219 222 224 222 222 226 227 225 228 233 238 246 243 235 240 247 253 263 269 268 268
199 201 204 207 209 211 213 213 214 216 217 219 221 221 222 221 219 222 225 221 219 221 222 225 225 222 225 230 227 229 234 240 252 255 243 242 249 255 266 273 276 277
200 200 203 207 211 212 215 217 216 218 220 221 224 223 222 223 220 219 225 227 227 228 228 230 232 228 225 231 233 233 234 237 247 252 246 243 248 256 261 265 270 273
202 202 203 206 212 215 217 219 220 220 221 224 227 227 223 223 223 222 224 226 228 231 234 236 238 236 230 230 235 238 237 236 242 248 246 241 243 251 256 258 259 264
203 205 207 207 212 218 220 223 225 223 222 225 230 232 231 226 223 224 226 227 228 230 234 238 239 239 237 234 235 240 243 243 245 252 256 253 249 251 255 256 254 259
206 208 211 210 212 219 225 227 227 228 228 227 230 234 239 237 231 228 230 229 226 227 229 234 237 237 239 240 238 241 247 248 248 250 254 257 258 259 260 260 264 268
210 206 211 215 214 220 230 230 227 233 235 229 230 238 243 244 241 239 241 237 232 230 230 232 236 238 238 241 242 243 247 252 253 252 253 257 261 264 265 264 268 272
209 204 209 215 215 219 226 229 230 239 247 237 224 229 232 234 237 245 262 261 249 244 242 234 233 239 239 240 244 247 252 256 255 253 259 263 261 266 271 270 272 276
205 202 207 212 217 223 227 230 233 239 252 256 239 229 233 233 232 233 248 256 248 252 259 248 237 244 249 247 245 242 246 255 255 252 258 263 260 264 267 265 266 269
205 203 207 212 221 231 233 232 233 235 247 256 254 251 249 240 234 234 245 250 242 250 272 278 259 245 248 248 245 238 237 248 254 253 259 266 265 266 268 268 265 258
209 207 209 213 222 235 238 234 233 233 240 249 254 256 249 241 244 250 252 250 236 237 267 287 281 247 244 247 248 247 244 246 251 258 266 272 269 266 271 275 271 264
216 216 229 236 234 241 243 238 236 236 242 251 255 255 249 247 257 258 249 242 230 227 249 277 266 256 260 262 257 251 248 247 250 258 266 273 275 269 271 280 281 279
244 237 251 258 255 253 250 248 248 247 251 258 260 258 255 255 257 248 237 227 217 215 187 93 233 248 259 268 265 249 241 242 242 248 258 266 270 270 276 295 303 297
268 256 245 238 240 249 250 251 254 256 258 261 264 264 259 257 253 240 230 227 218 211 205 193 215 233 243 263 272 259 244 237 237 246 264 278 280 289 300 304 304 302
237 238 238 234 236 243 243 243 247 253 255 256 261 264 260 254 249 239 233 238 240 232 213 202 215 230 234 241 258 258 249 241 242 251 269 275 273 292 306 299 285 287
225 225 235 242 245 246 245 244 245 250 253 253 254 256 253 248 242 235 232 241 250 245 222 206 218 231 235 233 237 251 254 251 250 253 262 266 267 281 302 307 288 279
243 238 245 255 257 256 254 253 250 248 249 250 251 246 239 234 231 228 224 215 213 199 188 206 225 236 240 239 240 252 264 261 248 237 251 267 274 279 287 296 295 284
258 267 267 270 269 262 260 260 253 247 242 237 233 227 220 220 219 208 191 184 172 157 173 204 227 241 246 244 244 252 263 265 252 263 268 270 275 283 284 282 286 283
10 352 308 286 281 272 272 272 265 262 254 237 222 212 203 198 193 176 165 160 150 151 172 197 201 207 240 235 229 239 235 187 163 283 303 288 272 328 345 294 275 266
46 24 359 339 335 324 314 307 302 303 286 246 219 206 193 181 170 159 149 137 132 139 154 171 160 145 189 220 217 243 241 187 183 182 140 331 325 357 9 314 298 266
56 51 46 42 34 24 14 3 344 331 312 246 206 193 180 163 152 150 146 136 133 138 143 142 137 133 97 22 334 312 145 170 185 185 160 84 13 4 289 272 319 297